TimeAKDT,TemperatureF,Dew PointF,Humidity,Sea Level PressureIn,VisibilityMPH,Wind Direction,Wind SpeedMPH,Gust SpeedMPH,PrecipitationIn,Events,Conditions,WindDirDegrees,DateUTC
12:53 AM,50.0,44.1,80,29.89,-9999.0,Calm,Calm,-,N/A,,Clear,0,2013-05-27 08:53:00
1:53 AM,48.9,43.0,80,29.90,-9999.0,Calm,Calm,-,N/A,,Clear,0,2013-05-27 09:53:00
2:53 AM,48.0,42.1,80,29.89,-9999.0,Calm,Calm,-,N/A,,Clear,0,2013-05-27 10:53:00
3:53 AM,46.0,42.1,86,29.89,-9999.0,Calm,Calm,-,N/A,,Clear,0,2013-05-27 11:53:00
4:53 AM,46.0,42.1,86,29.88,-9999.0,Calm,Calm,-,N/A,,Clear,0,2013-05-27 12:53:00
5:53 AM,46.0,41.0,83,29.87,-9999.0,Calm,Calm,-,N/A,,Clear,0,2013-05-27 13:53:00
6:53 AM,46.9,42.1,83,29.86,-9999.0,Calm,Calm,-,N/A,,Clear,0,2013-05-27 14:53:00
7:53 AM,48.9,43.0,80,29.84,-9999.0,Calm,Calm,-,N/A,,Clear,0,2013-05-27 15:53:00
8:53 AM,50.0,44.1,80,29.82,-9999.0,SW,3.5,-,N/A,,Clear,220,2013-05-27 16:53:00
9:53 AM,52.0,43.0,71,29.79,-9999.0,WSW,3.5,-,N/A,,Clear,240,2013-05-27 17:53:00
10:53 AM,52.0,46.0,80,29.77,-9999.0,WSW,4.6,-,N/A,,Clear,250,2013-05-27 18:53:00
11:53 AM,55.0,45.0,69,29.75,-9999.0,WSW,4.6,-,N/A,,Clear,240,2013-05-27 19:53:00
12:53 PM,57.0,44.1,62,29.73,-9999.0,WSW,8.1,-,N/A,,Clear,240,2013-05-27 20:53:00
1:53 PM,59.0,45.0,60,29.70,-9999.0,SW,5.8,-,N/A,,Clear,220,2013-05-27 21:53:00
2:53 PM,61.0,45.0,56,29.68,-9999.0,WSW,5.8,-,N/A,,Clear,240,2013-05-27 22:53:00
3:53 PM,61.0,45.0,56,29.67,-9999.0,WSW,9.2,-,N/A,,Clear,240,2013-05-27 23:53:00
4:53 PM,61.0,44.1,54,29.65,-9999.0,WSW,9.2,-,N/A,,Clear,250,2013-05-28 00:53:00
5:53 PM,61.0,45.0,56,29.64,-9999.0,WSW,6.9,-,N/A,,Clear,240,2013-05-28 01:53:00
6:53 PM,62.1,45.0,53,29.63,-9999.0,WSW,3.5,-,N/A,,Clear,240,2013-05-28 02:53:00
7:53 PM,60.1,45.0,57,29.63,-9999.0,Calm,Calm,-,N/A,,Clear,0,2013-05-28 03:53:00
8:53 PM,59.0,46.0,62,29.62,-9999.0,Calm,Calm,-,N/A,,Clear,0,2013-05-28 04:53:00
9:53 PM,59.0,45.0,60,29.63,-9999.0,Calm,Calm,-,N/A,,Clear,0,2013-05-28 05:53:00
10:53 PM,55.9,43.0,62,29.63,-9999.0,Calm,Calm,-,N/A,,Clear,0,2013-05-28 06:53:00
11:53 PM,52.0,42.1,69,29.64,-9999.0,NE,4.6,-,N/A,,Clear,40,2013-05-28 07:53:00